FW5236 Weather Reports


time (UTC)temp
C
wind
direction
speed
KPH
gust
KPH
rain 1hr
cm
rain 24hr
cm
rain mn
cm
humidity
%
barometer
mb
20260505204532 24 41 1.6 6.4 0.00 0.00 0.00 45 1015.3
20260505203032 24 44 1.6 6.4 0.00 0.00 0.00 44 1015.3
20260505201530 23 43 1.6 8.0 0.00 0.00 0.00 45 1015.4
20260505200033 22 34 1.6 4.8 0.00 0.00 0.00 48 1015.5
20260505193030 22 52 3.2 6.4 0.00 0.00 0.00 49 1015.7
20260505191605 22 45 3.2 9.7 0.00 0.00 0.00 50 1015.7
20260505190105 21 48 1.6 6.4 0.00 0.00 0.00 51 1015.8
20260505184530 21 37 1.6 6.4 0.00 0.00 0.00 52 1015.9
20260505183030 21 44 3.2 9.7 0.00 0.00 0.00 53 1016.0
20260505181532 20 50 3.2 8.0 0.00 0.00 0.00 54 1015.9
20260505180032 20 45 3.2 8.0 0.00 0.00 0.00 55 1015.9
20260505174530 20 42 1.6 6.4 0.00 0.00 0.00 56 1016.0
20260505171531 19 39 1.6 8.0 0.00 0.00 0.00 60 1015.9
20260505170029 18 53 1.6 6.4 0.00 0.00 0.00 61 1015.9
20260505164529 18 41 1.6 6.4 0.00 0.00 0.00 63 1015.9
20260505163030 17 43 1.6 11.3 0.00 0.00 0.00 65 1016.0
20260505161530 17 42 1.6 6.4 0.00 0.00 0.00 68 1016.0
20260505153029 14 360 0.0 3.2 0.00 0.00 0.00 80 1015.9
20260505151607 12 231 0.0 0.0 0.00 0.00 0.00 86 1015.9
20260505124531 9 245 0.0 3.2 0.00 0.00 0.00 90 1014.3
20260505123032 9 225 0.0 1.6 0.00 0.00 0.00 89 1014.2
20260505121529 10 232 0.0 6.4 0.00 0.00 0.00 88 1014.1
20260505120030 10 226 0.0 4.8 0.00 0.00 0.00 87 1014.0
20260505114528 10 238 0.0 6.4 0.00 0.00 0.00 87 1014.0
20260505113034 10 244 0.0 4.8 0.00 0.00 0.00 86 1013.9
20260505111531 11 268 0.0 4.8 0.00 0.00 0.00 86 1013.8
20260505101531 12 246 0.0 4.8 0.00 0.00 0.00 83 1013.4
20260505100030 12 272 0.0 4.8 0.00 0.00 0.00 83 1013.2
20260505094533 12 313 0.0 3.2 0.00 0.00 0.00 83 1013.2
20260505093104 12 265 0.0 4.8 0.00 0.00 0.00 80 1013.1
20260505091531 13 263 1.6 6.4 0.00 0.00 0.00 79 1013.1
20260505090030 14 30 0.0 1.6 0.00 0.00 0.00 80 1012.9
20260505084644 13 25 0.0 6.4 0.00 0.00 0.00 81 1012.9
20260505083028 14 344 0.0 4.8 0.00 0.00 0.00 79 1013.0
20260505081526 14 9 0.0 4.8 0.00 0.00 0.00 77 1012.9
20260505080033 15 10 0.0 3.2 0.00 0.00 0.00 75 1012.9
20260505074530 15 23 0.0 3.2 0.00 0.00 0.00 74 1012.9
20260505073031 15 32 0.0 3.2 0.00 0.00 0.00 72 1012.7
20260505071533 15 292 0.0 4.8 0.00 0.00 0.00 70 1012.7
20260505070031 15 21 0.0 4.8 0.00 0.00 0.00 69 1012.4
20260505061533 16 347 0.0 6.4 0.00 0.00 0.00 63 1012.4
20260505054532 17 13 0.0 6.4 0.00 0.00 0.00 60 1012.2
20260505053106 17 324 1.6 6.4 0.00 0.00 0.00 59 1012.1
20260505051532 17 308 0.0 4.8 0.00 0.00 0.00 59 1012.0
20260505041603 19 346 0.0 6.4 0.00 0.00 0.00 54 1011.5
20260505040043 20 6 0.0 6.4 0.00 0.00 0.00 53 1011.2
20260505034605 19 18 1.6 9.7 0.00 0.00 0.00 55 1010.9
20260505033107 19 17 0.0 6.4 0.00 0.00 0.00 56 1010.9
20260505031604 20 2 0.0 4.8 0.00 0.00 0.00 55 1010.6
20260505030032 21 24 0.0 6.4 0.00 0.00 0.00 53 1010.4
20260505024605 22 32 0.0 4.8 0.00 0.00 0.00 50 1010.3
20260505023030 23 20 0.0 8.0 0.00 0.00 0.00 49 1010.1
20260505021530 23 29 1.6 8.0 0.00 0.00 0.00 47 1010.1
20260505020107 24 52 3.2 8.0 0.00 0.00 0.00 45 1010.0
20260505014532 25 43 1.6 6.4 0.00 0.00 0.00 44 1010.0
20260505013030 25 42 1.6 8.0 0.00 0.00 0.00 42 1010.0
20260505011530 26 46 3.2 11.3 0.00 0.00 0.00 42 1010.0
20260505010032 26 47 3.2 9.7 0.00 0.00 0.00 40 1009.9
20260505003103 27 47 3.2 8.0 0.00 0.00 0.00 39 1010.1
20260505001606 27 53 3.2 9.7 0.00 0.00 0.00 39 1010.1
20260505000034 27 42 3.2 8.0 0.00 0.00 0.00 38 1010.2
20260504234531 27 42 3.2 8.0 0.00 0.00 0.00 38 1010.2
20260504233031 28 50 3.2 9.7 0.00 0.00 0.00 37 1010.2
20260504231530 28 55 1.6 6.4 0.00 0.00 0.00 37 1010.4
20260504230107 28 56 3.2 8.0 0.00 0.00 0.00 36 1010.6
20260504224531 28 49 3.2 8.0 0.00 0.00 0.00 36 1010.7
20260504223106 28 46 3.2 8.0 0.00 0.00 0.00 36 1010.8
20260504221530 28 37 3.2 9.7 0.00 0.00 0.00 35 1010.9
20260504220029 28 46 1.6 9.7 0.00 0.00 0.00 34 1011.0
20260504214531 28 44 1.6 8.0 0.00 0.00 0.00 31 1011.2
20260504213030 28 27 1.6 9.7 0.00 0.00 0.00 30 1011.3
20260504211527 28 26 1.6 6.4 0.00 0.00 0.00 30 1011.3
20260504210032 28 42 1.6 6.4 0.00 0.00 0.00 31 1011.5